Вернуться в каталог

SL-14 DEB

АктивенPO
NORAD 45290·DEBRIS·🇷🇺 Russia

Запущен Aug 15, 1991 с Plesetsk Cosmodrome

Loading…

Ближайшие Пролёты (ближайшие 24 часа)

TLE

СвежийSource: Space-Track

Эпоха: Sep 14, 2026, 08:52 UTC

1 45290U 91056AC  26257.36947277  .00000142  00000-0  21764-3 0  9998
2 45290  82.6356  36.2736 0098594  40.8015 320.0451 13.43205322320399

Отслеживайте SL-14 DEB в реальном времени с AllMySat

Download on the App Store